Location: Newark
(39.0622°N, 106.5590°E)
Time: 19:18:39
(UTC+00:00)

Vanguard 2 Rocket - Pass Details

Date: 01 February 2020
Orbit: 553 x 3327 km, 32.9° (Epoch: 24 February)

Event Time Altitude Azimuth Distance (km) Brightness Sun altitude
Rises 19:37:40 0° 238° (WSW) 3,096 - -50.6°
Reaches altitude 10° 19:40:32 10° 225° (SW) 1,977 - -50.1°
Maximum altitude 19:44:06 26° 168° (SSE) 1,110 - -49.5°
Drops below altitude 10° 19:47:26 10° 109° (ESE) 1,836 - -48.9°
Sets 19:49:59 0° 96° (E) 2,822 - -48.4°
